Showing default

MIDAS 6 (FTV 1169), 574

Orbit data source: Space-Track

MIDAS 6 (FTV 1169), 574 is a payload satellite owned by USAF SSD (US) in LEO that was launched on Thu, 09 May 1963 UTC via an ATLAS AGENA B launch vehicle from the Air Force Western Test Range (AFWTR). Payload-class satellites include a variety of spacecraft equipped with specific instruments for various scientific and technological missions. These include communications satellites like Starlink; space stations such as the ISS; scientific satellites like the Hubble; Earth observation satellites from companies like Planet Labs, Umbra, and HawkEye 360; GPS; miniature CubeSats for education and research; and military/defense satellites.

Loading next visibility...
Identifier
574, 1963-014A
Orbit
LEO
Country
Flag of USUS
Related business
Manufacturer
LMSC
Mission
Spacecraft
Bus & Motor
MIDAS, Unknown motor
Mass
~1,540 kg wet, ~840 kg dry
Launch date (UTC)
1963-05-09 (63 years ago)
Launch vehicle
ATLAS AGENA B
Launch site
Air Force Western Test Range (AFWTR)
Object type
Payload
Rocket body
Debris
Shape & HBR
Unknown
Radar Cross Section
Large (>1 m²)

Expand to show TLE details & history
Last TLE update: 16 hours ago

TLE from 16 hours ago
0 MIDAS 6 (FTV 1169)
1 00574U 63014A   26119.17899807  .00000002  00000-0 -54007-3 0  9990
2 00574  87.3584 200.4023 0031752 162.5456 197.6497  8.65276658213542
Epoch: 2026-04-29T04:17Z
TLE epoch observation values (Epoch: 2026-04-29T04:17:45.433Z)
Latitude
0.00008°
Longitude
-81.18068°
Altitude
3,676.636 km
Speed
6.287 km/s
True Right ascension
13h 21m 36s
True Declination
0° 00' 00"
Sunlit
Object was in full shadow at epoch
Visualization orbit readout
Latitude
Unknown
Longitude
Unknown
Altitude
Unknown
Speed
Unknown
Apparent Right ascension
Unknown
Apparent Declination
Unknown
Sunlit
N/A
Visualization observer readout
Local Sidereal Time
03:30:28
Azimuth
Unknown
Elevation
Unknown
Doppler factor
Unknown
Orbital elements
Apogee altitude
3,673.751 km
Perigee altitude
3,610.119 km
Semi-major axis
10,020.072 km
Eccentricity
0.00318
Inclination
87.3584°
RAAN
200.4023°
Arg. of periapsis
162.5456°
True anomaly
197.5398°
Mean anomaly
197.6497°
Eccentric anomaly
197.59471°
Mean motion
2.1639 °/min
Orbital period
166.37 mins
BSTAR
-0.00054007
Loading maneuver chart data...
Computing Atmospheric mass density...

Documentation

Showing up to 5 results
|